RYR338J GMMX-LFOB

Flight info

Callsign RYR338J
Flight time 2h 53m
Altitude 34000
Route OBOGA UG850 VALBA UZ801 TOLSI/N0458F360 UG5 KORIS DCT XULIM DCT VJF DCT SVL DCT HIJ DCT RUSEM DCT SOTUK DCT USOKO DCT TLD DCT SIE DCT EDIGO DCT DGO DCT CEGAM DCT BAGAS DCT SSN DCT LUSEM DCT LULUT DCT ADABI/N0449F280 DCT BOKNO UN858 VANAD/N0388F180 A34 LGL Z295 PEXIR
Aircraft B738/M-SDE2E3FGHIRWXY/LB1

Departure

Time 2026-04-22 13:21
Airport Marrakesh Menara Airport (GMMX)

Arrival

Time 2026-04-22 16:14
Airport Beauvais-Tillé airport (LFOB)
Time Latitude Longitude Altitude Speed Heading
2026-04-22 13:03 31.60324 -8.02380 1532 ft 0 kts 186°
2026-04-22 13:18 31.60323 -8.02380 1538 ft 1 kts 179°
2026-04-22 13:18 31.60314 -8.02344 1536 ft 9 kts 73°
2026-04-22 13:18 31.60381 -8.02310 1531 ft 11 kts 33°
2026-04-22 13:19 31.60394 -8.02226 1539 ft 11 kts 95°
2026-04-22 13:19 31.60386 -8.02139 1540 ft 11 kts 97°
2026-04-22 13:19 31.60393 -8.02058 1539 ft 10 kts 50°
2026-04-22 13:19 31.60464 -8.02032 1541 ft 12 kts
2026-04-22 13:20 31.60550 -8.02044 1538 ft 13 kts 308°
2026-04-22 13:20 31.60560 -8.02172 1533 ft 36 kts 276°
2026-04-22 13:20 31.60617 -8.02813 1532 ft 120 kts 276°
2026-04-22 13:20 31.60715 -8.04041 1590 ft 181 kts 276°
2026-04-22 13:21 31.60781 -8.05598 2360 ft 195 kts 272°
2026-04-22 13:21 31.60870 -8.07226 3139 ft 202 kts 281°
2026-04-22 13:21 31.61114 -8.08816 4194 ft 199 kts 279°
2026-04-22 13:21 31.61295 -8.10505 4779 ft 220 kts 276°
2026-04-22 13:22 31.61468 -8.12419 4981 ft 249 kts 275°
2026-04-22 13:22 31.61649 -8.14558 5323 ft 274 kts 274°
2026-04-22 13:22 31.62032 -8.16826 5744 ft 302 kts 291°
2026-04-22 13:22 31.63327 -8.18866 6029 ft 334 kts 320°
2026-04-22 13:23 31.65479 -8.20020 6655 ft 350 kts 349°
2026-04-22 13:23 31.67923 -8.19879 7429 ft 358 kts 17°
2026-04-22 13:23 31.70104 -8.18461 8174 ft 363 kts 45°
2026-04-22 13:23 31.71520 -8.16057 9010 ft 358 kts 73°
2026-04-22 13:24 31.71965 -8.13223 9869 ft 354 kts 89°
2026-04-22 13:24 31.72310 -8.10320 10600 ft 362 kts 85°
2026-04-22 13:24 31.72739 -8.07380 11357 ft 368 kts 84°
2026-04-22 13:24 31.73169 -8.04387 12112 ft 373 kts 84°
2026-04-22 13:25 31.73577 -8.01396 12859 ft 377 kts 84°
2026-04-22 13:25 31.73980 -7.98329 13592 ft 383 kts 84°
2026-04-22 13:25 31.74412 -7.95199 14094 ft 395 kts 79°
2026-04-22 13:25 31.75557 -7.92169 14201 ft 420 kts 54°
2026-04-22 13:26 31.77563 -7.89607 14529 ft 431 kts 45°
2026-04-22 13:26 31.79691 -7.87086 15043 ft 435 kts 47°
2026-04-22 13:26 31.81707 -7.84425 15675 ft 436 kts 50°
2026-04-22 13:26 31.83658 -7.81680 16263 ft 439 kts 51°
2026-04-22 13:27 31.85613 -7.78935 16688 ft 445 kts 49°
2026-04-22 13:27 31.87698 -7.76211 17224 ft 448 kts 47°
2026-04-22 13:27 31.89823 -7.73513 17827 ft 449 kts 47°
2026-04-22 13:27 31.91954 -7.70812 18352 ft 452 kts 47°
2026-04-22 13:28 31.94097 -7.68076 18791 ft 455 kts 47°
2026-04-22 13:28 31.95519 -7.66246 19085 ft 457 kts 47°
2026-04-22 13:28 31.97672 -7.63462 19543 ft 460 kts 47°
2026-04-22 13:28 31.99828 -7.60662 19993 ft 462 kts 47°
2026-04-22 13:29 32.02699 -7.56930 20612 ft 464 kts 47°
2026-04-22 13:29 32.04165 -7.55025 20922 ft 466 kts 47°
2026-04-22 13:29 32.06491 -7.52360 21303 ft 468 kts 36°
2026-04-22 13:29 32.09357 -7.50560 21703 ft 469 kts 18°
2026-04-22 13:30 32.12502 -7.49759 22151 ft 467 kts
2026-04-22 13:30 32.15762 -7.49743 22527 ft 469 kts 357°
2026-04-22 13:30 32.19044 -7.49832 22866 ft 473 kts 357°
2026-04-22 13:30 32.22346 -7.49924 23255 ft 475 kts 357°
2026-04-22 13:31 32.25664 -7.49996 23617 ft 477 kts 357°
2026-04-22 13:31 32.28986 -7.50047 23936 ft 479 kts 358°
2026-04-22 13:31 32.32332 -7.50081 24244 ft 481 kts 358°
2026-04-22 13:31 32.35641 -7.50106 24543 ft 483 kts 358°
2026-04-22 13:32 32.39018 -7.50128 24843 ft 485 kts 358°
2026-04-22 13:32 32.42402 -7.50149 25134 ft 487 kts 358°
2026-04-22 13:32 32.45806 -7.50171 25416 ft 490 kts 358°
2026-04-22 13:32 32.49226 -7.50195 25721 ft 491 kts 357°
2026-04-22 13:33 32.52651 -7.50219 26010 ft 493 kts 357°
2026-04-22 13:33 32.56090 -7.50244 26312 ft 494 kts 357°
2026-04-22 13:33 32.59519 -7.50269 26725 ft 492 kts 357°
2026-04-22 13:33 32.62886 -7.50293 27183 ft 490 kts 357°
2026-04-22 13:34 32.66290 -7.50311 27652 ft 488 kts 357°
2026-04-22 13:34 32.69690 -7.50330 28082 ft 487 kts 356°
2026-04-22 13:34 32.73078 -7.50361 28485 ft 487 kts 356°
2026-04-22 13:34 32.76468 -7.50397 28942 ft 486 kts 356°
2026-04-22 13:35 32.79849 -7.50433 29433 ft 484 kts 356°
2026-04-22 13:35 32.83212 -7.50466 29922 ft 483 kts 356°
2026-04-22 13:35 32.86572 -7.50497 30331 ft 481 kts 356°
2026-04-22 13:35 32.89881 -7.50521 30730 ft 480 kts 356°
2026-04-22 13:36 32.93213 -7.50534 31142 ft 479 kts 356°
2026-04-22 13:36 32.96538 -7.50543 31571 ft 477 kts 356°
2026-04-22 13:36 32.99855 -7.50553 31976 ft 475 kts 356°
2026-04-22 13:36 33.03161 -7.50565 32359 ft 475 kts 356°
2026-04-22 13:37 33.06460 -7.50579 32763 ft 473 kts 356°
2026-04-22 13:37 33.09756 -7.50580 33162 ft 473 kts 358°
2026-04-22 13:37 33.13056 -7.50214 33545 ft 476 kts
2026-04-22 13:37 33.16285 -7.49274 33919 ft 478 kts 11°
2026-04-22 13:38 33.19511 -7.48200 33930 ft 483 kts 12°
2026-04-22 13:38 33.29160 -7.44915 33948 ft 478 kts 12°
2026-04-22 13:39 33.35550 -7.42798 33957 ft 476 kts 12°
2026-04-22 13:39 33.41947 -7.40707 33961 ft 476 kts 11°
2026-04-22 13:40 33.48343 -7.38618 33973 ft 476 kts 12°
2026-04-22 13:40 33.54744 -7.36522 33969 ft 477 kts 11°
2026-04-22 13:41 33.61115 -7.34430 33973 ft 478 kts 12°
2026-04-22 13:41 33.67536 -7.32319 33966 ft 478 kts 12°
2026-04-22 13:42 33.73968 -7.30200 33987 ft 479 kts 12°
2026-04-22 13:42 33.80395 -7.28079 33993 ft 479 kts 12°
2026-04-22 13:43 33.86797 -7.25964 33981 ft 479 kts 12°
2026-04-22 13:43 33.93233 -7.23834 33988 ft 479 kts 12°
2026-04-22 13:44 33.99668 -7.21700 33981 ft 478 kts 12°
2026-04-22 13:44 34.06043 -7.19584 33994 ft 478 kts 11°
2026-04-22 13:45 34.12462 -7.17450 33989 ft 477 kts 11°
2026-04-22 13:45 34.18881 -7.15312 33992 ft 477 kts 12°
2026-04-22 13:46 34.25281 -7.13177 33993 ft 477 kts 12°
2026-04-22 13:46 34.31655 -7.11047 33996 ft 477 kts 11°
2026-04-22 13:47 34.38059 -7.08905 33994 ft 477 kts 11°
2026-04-22 13:47 34.44428 -7.06770 33999 ft 477 kts 12°
2026-04-22 13:48 34.50826 -7.04621 33995 ft 477 kts 12°
2026-04-22 13:48 34.57233 -7.02467 34014 ft 477 kts 12°
2026-04-22 13:49 34.63437 -6.99666 34014 ft 482 kts 23°
2026-04-22 13:49 34.69432 -6.95928 33997 ft 483 kts 24°
2026-04-22 13:50 34.75396 -6.92166 34000 ft 483 kts 24°
2026-04-22 13:50 34.81386 -6.88449 34015 ft 483 kts 23°
2026-04-22 13:51 34.87361 -6.84771 34007 ft 483 kts 23°
2026-04-22 13:51 34.93367 -6.81074 33990 ft 483 kts 23°
2026-04-22 13:52 34.99361 -6.77376 34003 ft 482 kts 23°
2026-04-22 13:52 35.05342 -6.73677 33993 ft 482 kts 23°
2026-04-22 13:53 35.11332 -6.69965 33997 ft 482 kts 23°
2026-04-22 13:53 35.17309 -6.66256 33998 ft 482 kts 23°
2026-04-22 13:54 35.23292 -6.62538 33995 ft 482 kts 23°
2026-04-22 13:54 35.29230 -6.58840 33997 ft 482 kts 23°
2026-04-22 13:55 35.35201 -6.55115 34004 ft 482 kts 23°
2026-04-22 13:55 35.41191 -6.51372 33990 ft 482 kts 23°
2026-04-22 13:56 35.47154 -6.47613 33992 ft 482 kts 24°
2026-04-22 13:56 35.53078 -6.43738 33996 ft 481 kts 24°
2026-04-22 13:57 35.58939 -6.39881 34005 ft 481 kts 24°
2026-04-22 13:57 35.64851 -6.36005 33986 ft 481 kts 24°
2026-04-22 13:58 35.70761 -6.32130 33990 ft 480 kts 24°
2026-04-22 13:58 35.76664 -6.28255 33991 ft 480 kts 24°
2026-04-22 13:59 35.82564 -6.24386 33996 ft 480 kts 24°
2026-04-22 13:59 35.88447 -6.20579 33998 ft 480 kts 24°
2026-04-22 14:00 35.94381 -6.16773 34015 ft 480 kts 24°
2026-04-22 14:00 36.00304 -6.12943 34016 ft 480 kts 24°
2026-04-22 14:01 36.06228 -6.09099 34015 ft 480 kts 24°
2026-04-22 14:01 36.12112 -6.05276 34016 ft 479 kts 24°
2026-04-22 14:02 36.18021 -6.01433 34005 ft 478 kts 24°
2026-04-22 14:02 36.24006 -5.97892 33999 ft 473 kts 14°
2026-04-22 14:03 36.30370 -5.96285 34008 ft 465 kts
2026-04-22 14:03 36.36749 -5.95244 34006 ft 465 kts
2026-04-22 14:04 36.43170 -5.94167 33991 ft 466 kts
2026-04-22 14:04 36.49599 -5.93039 33980 ft 466 kts
2026-04-22 14:05 36.56021 -5.91891 33978 ft 466 kts
2026-04-22 14:06 36.65615 -5.90170 33993 ft 466 kts
2026-04-22 14:06 36.72031 -5.89019 33990 ft 466 kts
2026-04-22 14:07 36.78454 -5.87866 33989 ft 466 kts
2026-04-22 14:07 36.84877 -5.86711 33996 ft 466 kts
2026-04-22 14:08 36.91301 -5.85554 33986 ft 466 kts
2026-04-22 14:08 36.97723 -5.84395 33979 ft 466 kts
2026-04-22 14:09 37.04149 -5.83233 33970 ft 466 kts
2026-04-22 14:09 37.10576 -5.82068 33985 ft 466 kts
2026-04-22 14:10 37.16968 -5.80909 33972 ft 467 kts
2026-04-22 14:10 37.23412 -5.79738 33971 ft 467 kts
2026-04-22 14:11 37.29845 -5.78566 33985 ft 467 kts
2026-04-22 14:11 37.36274 -5.77393 34000 ft 467 kts
2026-04-22 14:12 37.42660 -5.76024 33989 ft 471 kts 12°
2026-04-22 14:12 37.48767 -5.72812 33995 ft 477 kts 22°
2026-04-22 14:13 37.54733 -5.69091 33983 ft 477 kts 22°
2026-04-22 14:13 37.60659 -5.65421 33992 ft 477 kts 22°
2026-04-22 14:14 37.66633 -5.61775 33981 ft 477 kts 22°
2026-04-22 14:14 37.72616 -5.58140 33984 ft 477 kts 22°
2026-04-22 14:15 37.78597 -5.54502 33980 ft 476 kts 22°
2026-04-22 14:15 37.83569 -5.51471 34001 ft 476 kts 22°
2026-04-22 14:16 37.90512 -5.47228 33983 ft 476 kts 22°
2026-04-22 14:16 37.95509 -5.44169 33992 ft 475 kts 22°
2026-04-22 14:17 38.01429 -5.40538 33986 ft 475 kts 22°
2026-04-22 14:17 38.07390 -5.36876 34007 ft 475 kts 22°
2026-04-22 14:18 38.13336 -5.33217 33986 ft 475 kts 22°
2026-04-22 14:18 38.19289 -5.29546 33992 ft 474 kts 22°
2026-04-22 14:19 38.25219 -5.25882 33982 ft 473 kts 22°
2026-04-22 14:19 38.31138 -5.22219 33987 ft 473 kts 22°
2026-04-22 14:20 38.39970 -5.16740 33986 ft 472 kts 22°
2026-04-22 14:20 38.45882 -5.13065 33986 ft 472 kts 22°
2026-04-22 14:21 38.54825 -5.07786 34009 ft 470 kts 19°
2026-04-22 14:22 38.63950 -5.03233 33992 ft 471 kts 18°
2026-04-22 14:23 38.73091 -4.98595 33985 ft 471 kts 18°
2026-04-22 14:23 38.79185 -4.95457 34010 ft 471 kts 19°
2026-04-22 14:24 38.85277 -4.92314 34000 ft 472 kts 19°
2026-04-22 14:24 38.91370 -4.89167 33996 ft 472 kts 19°
2026-04-22 14:25 38.97497 -4.86000 34010 ft 477 kts 19°
2026-04-22 14:25 39.03641 -4.82815 34021 ft 480 kts 19°
2026-04-22 14:26 39.09855 -4.79582 34011 ft 481 kts 19°
2026-04-22 14:26 39.16074 -4.76339 34010 ft 482 kts 19°
2026-04-22 14:27 39.22253 -4.73116 34005 ft 482 kts 19°
2026-04-22 14:27 39.28464 -4.69880 34411 ft 480 kts 19°
2026-04-22 14:27 39.31556 -4.68268 34833 ft 475 kts 19°
2026-04-22 14:28 39.34612 -4.66671 35262 ft 471 kts 19°
2026-04-22 14:28 39.37621 -4.65098 35676 ft 468 kts 19°
2026-04-22 14:28 39.40634 -4.63522 36010 ft 467 kts 19°
2026-04-22 14:29 39.46729 -4.60331 36007 ft 473 kts 19°
2026-04-22 14:29 39.52802 -4.57141 36011 ft 468 kts 19°
2026-04-22 14:30 39.58791 -4.53989 36009 ft 463 kts 19°
2026-04-22 14:30 39.64744 -4.50853 36019 ft 466 kts 19°
2026-04-22 14:31 39.70803 -4.47654 36017 ft 473 kts 20°
2026-04-22 14:31 39.76919 -4.44418 36008 ft 474 kts 20°
2026-04-22 14:32 39.83028 -4.41167 35999 ft 475 kts 20°
2026-04-22 14:32 39.89154 -4.37873 36005 ft 475 kts 20°
2026-04-22 14:33 39.95218 -4.34608 36020 ft 474 kts 20°
2026-04-22 14:33 40.01287 -4.31188 36016 ft 475 kts 22°
2026-04-22 14:34 40.07271 -4.27496 36000 ft 475 kts 23°
2026-04-22 14:34 40.13248 -4.23782 36004 ft 475 kts 23°
2026-04-22 14:35 40.19234 -4.20102 36013 ft 475 kts 22°
2026-04-22 14:35 40.25188 -4.16457 36016 ft 475 kts 22°
2026-04-22 14:36 40.31173 -4.12792 36007 ft 475 kts 22°
2026-04-22 14:36 40.37164 -4.09113 36017 ft 475 kts 23°
2026-04-22 14:37 40.43159 -4.05423 36028 ft 475 kts 22°
2026-04-22 14:37 40.49154 -4.01727 36025 ft 476 kts 23°
2026-04-22 14:38 40.55114 -3.98044 36047 ft 475 kts 23°
2026-04-22 14:38 40.61103 -3.94336 36061 ft 476 kts 23°
2026-04-22 14:39 40.67096 -3.90619 36064 ft 476 kts 23°
2026-04-22 14:39 40.73053 -3.86916 36078 ft 476 kts 23°
2026-04-22 14:40 40.82033 -3.81319 36026 ft 475 kts 22°
2026-04-22 14:40 40.88008 -3.77586 36020 ft 474 kts 22°
2026-04-22 14:41 40.93944 -3.73870 36007 ft 474 kts 23°
2026-04-22 14:41 40.99902 -3.70132 36016 ft 473 kts 23°
2026-04-22 14:42 41.05856 -3.66390 36006 ft 473 kts 23°
2026-04-22 14:42 41.11802 -3.62645 36008 ft 473 kts 22°
2026-04-22 14:43 41.17741 -3.59004 36007 ft 472 kts 20°
2026-04-22 14:43 41.23811 -3.55713 36007 ft 471 kts 19°
2026-04-22 14:44 41.29904 -3.52455 36000 ft 472 kts 19°
2026-04-22 14:44 41.35984 -3.49141 35996 ft 472 kts 19°
2026-04-22 14:45 41.42054 -3.45801 35992 ft 472 kts 19°
2026-04-22 14:45 41.48130 -3.42453 35992 ft 471 kts 19°
2026-04-22 14:46 41.54150 -3.39135 36000 ft 470 kts 19°
2026-04-22 14:46 41.60181 -3.35808 35991 ft 469 kts 19°
2026-04-22 14:47 41.66200 -3.32482 35992 ft 468 kts 19°
2026-04-22 14:47 41.72220 -3.29147 35992 ft 467 kts 19°
2026-04-22 14:48 41.78231 -3.25810 35997 ft 467 kts 19°
2026-04-22 14:48 41.84240 -3.22466 35998 ft 467 kts 19°
2026-04-22 14:49 41.90203 -3.19142 35999 ft 467 kts 19°
2026-04-22 14:49 41.96208 -3.15788 36013 ft 467 kts 19°
2026-04-22 14:50 42.02209 -3.12429 36004 ft 467 kts 19°
2026-04-22 14:50 42.08222 -3.09056 36004 ft 467 kts 19°
2026-04-22 14:51 42.14222 -3.05684 35999 ft 467 kts 19°
2026-04-22 14:51 42.20212 -3.02309 35998 ft 467 kts 19°
2026-04-22 14:52 42.26201 -2.98929 35999 ft 466 kts 19°
2026-04-22 14:52 42.32179 -2.95548 35995 ft 466 kts 19°
2026-04-22 14:53 42.38115 -2.92183 36000 ft 465 kts 19°
2026-04-22 14:53 42.44075 -2.88695 35981 ft 468 kts 24°
2026-04-22 14:54 42.49378 -2.83484 35999 ft 474 kts 38°
2026-04-22 14:54 42.54273 -2.77455 35987 ft 475 kts 39°
2026-04-22 14:55 42.59179 -2.71417 36018 ft 476 kts 39°
2026-04-22 14:55 42.64085 -2.65454 36024 ft 475 kts 38°
2026-04-22 14:56 42.69033 -2.59462 36034 ft 475 kts 38°
2026-04-22 14:56 42.73958 -2.53485 36029 ft 474 kts 38°
2026-04-22 14:57 42.78879 -2.47498 36040 ft 474 kts 38°
2026-04-22 14:57 42.83787 -2.41510 36046 ft 474 kts 38°
2026-04-22 14:58 42.88660 -2.35552 36042 ft 473 kts 38°
2026-04-22 14:58 42.93566 -2.29539 36047 ft 473 kts 38°
2026-04-22 14:59 42.98459 -2.23531 36038 ft 472 kts 38°
2026-04-22 14:59 43.03339 -2.17507 36060 ft 473 kts 38°
2026-04-22 15:00 43.08210 -2.11473 36053 ft 472 kts 38°
2026-04-22 15:00 43.13083 -2.05435 36062 ft 473 kts 38°
2026-04-22 15:01 43.17958 -1.99386 36074 ft 472 kts 38°
2026-04-22 15:01 43.22798 -1.93364 36061 ft 473 kts 38°
2026-04-22 15:02 43.27669 -1.87290 36081 ft 472 kts 38°
2026-04-22 15:02 43.31794 -1.82432 36070 ft 467 kts 30°
2026-04-22 15:03 43.38329 -1.77397 36073 ft 462 kts 25°
2026-04-22 15:03 43.43792 -1.72702 36087 ft 464 kts 29°
2026-04-22 15:04 43.48251 -1.68556 36076 ft 465 kts 30°
2026-04-22 15:04 43.53619 -1.63582 36076 ft 465 kts 29°
2026-04-22 15:05 43.59008 -1.58658 36084 ft 465 kts 29°
2026-04-22 15:05 43.64417 -1.53743 36056 ft 466 kts 28°
2026-04-22 15:06 43.69825 -1.48821 36051 ft 465 kts 28°
2026-04-22 15:06 43.75238 -1.43883 36046 ft 465 kts 28°
2026-04-22 15:07 43.80604 -1.38974 36042 ft 465 kts 29°
2026-04-22 15:07 43.85996 -1.34031 36040 ft 465 kts 28°
2026-04-22 15:08 43.91391 -1.29074 36034 ft 465 kts 29°
2026-04-22 15:08 43.96780 -1.24112 36031 ft 465 kts 29°
2026-04-22 15:09 44.02177 -1.19130 36023 ft 465 kts 29°
2026-04-22 15:09 44.07567 -1.14145 36033 ft 466 kts 29°
2026-04-22 15:10 44.12937 -1.09167 36021 ft 465 kts 29°
2026-04-22 15:10 44.18325 -1.04161 36008 ft 465 kts 29°
2026-04-22 15:11 44.23698 -0.99158 36013 ft 464 kts 29°
2026-04-22 15:11 44.29046 -0.94166 36008 ft 464 kts 29°
2026-04-22 15:12 44.34414 -0.89145 36003 ft 464 kts 29°
2026-04-22 15:12 44.39798 -0.84147 36002 ft 463 kts 26°
2026-04-22 15:13 44.45557 -0.80308 36004 ft 457 kts 18°
2026-04-22 15:13 44.51425 -0.76859 36004 ft 457 kts 18°
2026-04-22 15:14 44.57252 -0.73392 36001 ft 457 kts 18°
2026-04-22 15:14 44.63086 -0.69846 35994 ft 457 kts 19°
2026-04-22 15:15 44.68915 -0.66267 35998 ft 457 kts 19°
2026-04-22 15:15 44.74742 -0.62677 35996 ft 456 kts 19°
2026-04-22 15:16 44.80574 -0.59077 35989 ft 457 kts 19°
2026-04-22 15:16 44.86357 -0.55502 35993 ft 456 kts 19°
2026-04-22 15:17 44.92178 -0.51895 35986 ft 457 kts 19°
2026-04-22 15:17 44.98023 -0.48267 35988 ft 457 kts 19°
2026-04-22 15:18 45.03824 -0.44657 35984 ft 457 kts 19°
2026-04-22 15:18 45.09659 -0.41018 35977 ft 458 kts 19°
2026-04-22 15:19 45.15453 -0.37395 35969 ft 458 kts 19°
2026-04-22 15:19 45.21294 -0.33736 35983 ft 458 kts 19°
2026-04-22 15:20 45.27128 -0.30073 35975 ft 458 kts 19°
2026-04-22 15:20 45.32961 -0.26402 35964 ft 459 kts 19°
2026-04-22 15:21 45.38801 -0.22718 35971 ft 459 kts 19°
2026-04-22 15:21 45.44620 -0.19039 35964 ft 459 kts 19°
2026-04-22 15:22 45.50461 -0.15338 35968 ft 459 kts 19°
2026-04-22 15:22 45.56256 -0.11657 35965 ft 459 kts 19°
2026-04-22 15:23 45.62097 -0.07939 35971 ft 459 kts 19°
2026-04-22 15:23 45.67948 -0.04206 35972 ft 460 kts 19°
2026-04-22 15:24 45.73797 -0.00466 35983 ft 460 kts 19°
2026-04-22 15:24 45.79627 0.03272 35999 ft 459 kts 19°
2026-04-22 15:25 45.85421 0.06994 35989 ft 458 kts 19°
2026-04-22 15:25 45.91230 0.10735 35993 ft 457 kts 19°
2026-04-22 15:26 45.97045 0.14487 36000 ft 457 kts 19°
2026-04-22 15:26 46.02856 0.18245 36014 ft 457 kts 19°
2026-04-22 15:27 46.08627 0.21987 36009 ft 457 kts 19°
2026-04-22 15:27 46.14436 0.25762 36017 ft 457 kts 19°
2026-04-22 15:28 46.20244 0.29545 36030 ft 458 kts 19°
2026-04-22 15:28 46.26056 0.33340 36031 ft 458 kts 19°
2026-04-22 15:29 46.31860 0.37138 36031 ft 457 kts 19°
2026-04-22 15:30 46.40530 0.42830 36038 ft 457 kts 19°
2026-04-22 15:30 46.46311 0.46635 36037 ft 456 kts 20°
2026-04-22 15:31 46.52088 0.50446 36055 ft 455 kts 20°
2026-04-22 15:31 46.57905 0.53841 36052 ft 448 kts
2026-04-22 15:32 46.63987 0.55820 36047 ft 447 kts
2026-04-22 15:32 46.70069 0.57728 36055 ft 447 kts
2026-04-22 15:33 46.76111 0.59690 36062 ft 447 kts
2026-04-22 15:33 46.82188 0.61701 36068 ft 447 kts
2026-04-22 15:34 46.88262 0.63721 36067 ft 448 kts
2026-04-22 15:34 46.94347 0.65745 36071 ft 448 kts
2026-04-22 15:35 46.99404 0.67431 36079 ft 448 kts
2026-04-22 15:35 47.06499 0.69550 36075 ft 444 kts
2026-04-22 15:36 47.12647 0.70185 36077 ft 442 kts 359°
2026-04-22 15:36 47.18798 0.70706 36104 ft 442 kts 359°
2026-04-22 15:37 47.24946 0.71307 36102 ft 443 kts 360°
2026-04-22 15:37 47.31099 0.71950 36101 ft 443 kts 360°
2026-04-22 15:38 47.37204 0.72595 36100 ft 443 kts 360°
2026-04-22 15:38 47.46436 0.73567 36104 ft 443 kts 360°
2026-04-22 15:39 47.52540 0.75159 36103 ft 452 kts 13°
2026-04-22 15:39 47.58513 0.78178 36098 ft 453 kts 14°
2026-04-22 15:40 47.64437 0.81175 36108 ft 452 kts 14°
2026-04-22 15:40 47.70426 0.84138 36121 ft 452 kts 13°
2026-04-22 15:41 47.76384 0.87076 36114 ft 451 kts 13°
2026-04-22 15:41 47.79365 0.88534 35928 ft 451 kts 11°
2026-04-22 15:41 47.82404 0.89431 35681 ft 441 kts
2026-04-22 15:42 47.85443 0.89556 35435 ft 434 kts 353°
2026-04-22 15:42 47.88426 0.89029 35191 ft 430 kts 343°
2026-04-22 15:42 47.91318 0.87902 34962 ft 428 kts 341°
2026-04-22 15:42 47.94153 0.86729 34723 ft 429 kts 341°
2026-04-22 15:43 47.97033 0.85576 34481 ft 429 kts 342°
2026-04-22 15:43 47.99917 0.84453 34231 ft 429 kts 342°
2026-04-22 15:43 48.02817 0.83320 33989 ft 430 kts 342°
2026-04-22 15:43 48.05716 0.82177 33721 ft 431 kts 342°
2026-04-22 15:44 48.08624 0.81026 33444 ft 432 kts 342°
2026-04-22 15:44 48.11536 0.79871 33185 ft 434 kts 342°
2026-04-22 15:44 48.14465 0.78708 32926 ft 436 kts 342°
2026-04-22 15:44 48.17369 0.77555 32663 ft 437 kts 342°
2026-04-22 15:45 48.20323 0.76381 32402 ft 439 kts 342°
2026-04-22 15:45 48.23285 0.75203 32164 ft 441 kts 342°
2026-04-22 15:45 48.26259 0.74020 31903 ft 442 kts 342°
2026-04-22 15:45 48.29236 0.72845 31643 ft 444 kts 342°
2026-04-22 15:46 48.32231 0.71667 31404 ft 445 kts 342°
2026-04-22 15:46 48.35234 0.70486 31158 ft 447 kts 342°
2026-04-22 15:46 48.38254 0.69295 30909 ft 449 kts 342°
2026-04-22 15:46 48.41279 0.68100 30666 ft 450 kts 342°
2026-04-22 15:47 48.44328 0.66892 30424 ft 453 kts 342°
2026-04-22 15:47 48.47356 0.65692 30173 ft 456 kts 342°
2026-04-22 15:47 48.50437 0.64469 29896 ft 458 kts 342°
2026-04-22 15:47 48.53531 0.63239 29627 ft 459 kts 342°
2026-04-22 15:48 48.56629 0.62005 29341 ft 460 kts 342°
2026-04-22 15:48 48.59692 0.60783 29065 ft 460 kts 342°
2026-04-22 15:48 48.62829 0.59529 28797 ft 461 kts 343°
2026-04-22 15:48 48.65892 0.58304 28541 ft 461 kts 342°
2026-04-22 15:49 48.68991 0.57063 28272 ft 460 kts 342°
2026-04-22 15:49 48.72085 0.55821 28004 ft 460 kts 342°
2026-04-22 15:49 48.75180 0.54580 27744 ft 460 kts 343°
2026-04-22 15:49 48.78331 0.53686 27473 ft 463 kts 351°
2026-04-22 15:50 48.80465 0.53466 27307 ft 465 kts 356°
2026-04-22 15:50 48.83705 0.53725 27050 ft 468 kts
2026-04-22 15:50 48.86933 0.54397 26803 ft 469 kts
2026-04-22 15:50 48.90168 0.55110 26549 ft 469 kts
2026-04-22 15:51 48.93405 0.55817 26298 ft 469 kts
2026-04-22 15:51 48.96639 0.56503 26049 ft 469 kts
2026-04-22 15:51 48.99871 0.57170 25803 ft 468 kts
2026-04-22 15:51 49.03102 0.57824 25560 ft 467 kts
2026-04-22 15:52 49.06323 0.58474 25316 ft 465 kts
2026-04-22 15:52 49.09529 0.59118 25079 ft 463 kts
2026-04-22 15:52 49.12710 0.59763 24786 ft 458 kts
2026-04-22 15:52 49.15774 0.60386 24161 ft 438 kts
2026-04-22 15:53 49.18689 0.61229 23553 ft 418 kts 16°
2026-04-22 15:53 49.21257 0.63127 22891 ft 404 kts 31°
2026-04-22 15:53 49.23385 0.65826 22242 ft 392 kts 40°
2026-04-22 15:53 49.25272 0.68746 21592 ft 379 kts 41°
2026-04-22 15:54 49.27078 0.71612 20968 ft 369 kts 43°
2026-04-22 15:54 49.28835 0.74409 20344 ft 360 kts 41°
2026-04-22 15:54 49.30560 0.77135 19739 ft 352 kts 41°
2026-04-22 15:54 49.32254 0.79799 19138 ft 345 kts 41°
2026-04-22 15:55 49.33922 0.82409 18561 ft 339 kts 43°
2026-04-22 15:55 49.35544 0.84943 17906 ft 334 kts 40°
2026-04-22 15:55 49.37179 0.87494 17242 ft 329 kts 44°
2026-04-22 15:55 49.38751 0.89945 16621 ft 324 kts 44°
2026-04-22 15:56 49.40319 0.92394 15987 ft 319 kts 44°
2026-04-22 15:56 49.41869 0.94817 15369 ft 315 kts 45°
2026-04-22 15:56 49.43393 0.97201 14766 ft 311 kts 46°
2026-04-22 15:56 49.44900 0.99560 14166 ft 307 kts 46°
2026-04-22 15:57 49.46387 1.01892 13518 ft 303 kts 47°
2026-04-22 15:57 49.47853 1.04191 12878 ft 300 kts 47°
2026-04-22 15:57 49.49309 1.06479 12229 ft 297 kts 47°
2026-04-22 15:57 49.50750 1.08745 11603 ft 294 kts 49°
2026-04-22 15:58 49.52177 1.10991 10976 ft 292 kts 48°
2026-04-22 15:58 49.53578 1.13195 10388 ft 290 kts 50°
2026-04-22 15:58 49.54984 1.15415 9743 ft 288 kts 50°
2026-04-22 15:58 49.56384 1.17623 9099 ft 287 kts 49°
2026-04-22 15:59 49.57780 1.19810 8451 ft 284 kts 52°
2026-04-22 15:59 49.58748 1.22383 7823 ft 275 kts 75°
2026-04-22 15:59 49.59139 1.25169 7619 ft 258 kts 84°
2026-04-22 15:59 49.59359 1.27856 7374 ft 246 kts 86°
2026-04-22 16:00 49.59548 1.30432 7104 ft 237 kts 86°
2026-04-22 16:00 49.59725 1.32875 6864 ft 229 kts 86°
2026-04-22 16:00 49.59908 1.35303 6629 ft 227 kts 86°
2026-04-22 16:00 49.60091 1.37696 6463 ft 221 kts 86°
2026-04-22 16:01 49.60270 1.40022 6329 ft 216 kts 86°
2026-04-22 16:01 49.60448 1.42292 6186 ft 211 kts 86°
2026-04-22 16:01 49.60622 1.44523 6047 ft 208 kts 86°
2026-04-22 16:01 49.60794 1.46684 5932 ft 197 kts 86°
2026-04-22 16:02 49.60956 1.48734 5803 ft 192 kts 86°
2026-04-22 16:02 49.61117 1.50771 5680 ft 190 kts 86°
2026-04-22 16:02 49.61275 1.52783 5539 ft 188 kts 86°
2026-04-22 16:02 49.61432 1.54783 5399 ft 187 kts 87°
2026-04-22 16:03 49.61588 1.56772 5257 ft 186 kts 86°
2026-04-22 16:03 49.61737 1.58749 5121 ft 186 kts 89°
2026-04-22 16:03 49.61647 1.60723 5037 ft 184 kts 99°
2026-04-22 16:03 49.61494 1.62707 4923 ft 187 kts 98°
2026-04-22 16:04 49.61356 1.64660 4753 ft 178 kts 98°
2026-04-22 16:04 49.61226 1.66527 4473 ft 172 kts 97°
2026-04-22 16:04 49.61102 1.68317 4218 ft 168 kts 97°
2026-04-22 16:04 49.60978 1.70091 3955 ft 164 kts 96°
2026-04-22 16:05 49.60860 1.71777 3721 ft 152 kts 95°
2026-04-22 16:05 49.60748 1.73362 3440 ft 144 kts 95°
2026-04-22 16:05 49.60644 1.74855 3176 ft 137 kts 95°
2026-04-22 16:05 49.60410 1.76223 3020 ft 127 kts 114°
2026-04-22 16:06 49.60007 1.77355 3003 ft 117 kts 113°
2026-04-22 16:06 49.59597 1.78472 3032 ft 121 kts 115°
2026-04-22 16:06 49.59170 1.79559 2981 ft 115 kts 115°
2026-04-22 16:06 49.58750 1.80592 2981 ft 114 kts 116°
2026-04-22 16:07 49.58308 1.81651 2980 ft 118 kts 117°
2026-04-22 16:07 49.57865 1.82687 2986 ft 116 kts 117°
2026-04-22 16:07 49.57424 1.83721 2989 ft 115 kts 116°
2026-04-22 16:07 49.56978 1.84754 3015 ft 117 kts 116°
2026-04-22 16:08 49.56530 1.85790 2996 ft 117 kts 116°
2026-04-22 16:08 49.56075 1.86835 3014 ft 118 kts 116°
2026-04-22 16:08 49.55610 1.87903 2999 ft 120 kts 117°
2026-04-22 16:08 49.55142 1.88978 3005 ft 120 kts 117°
2026-04-22 16:09 49.54682 1.90031 3039 ft 115 kts 117°
2026-04-22 16:09 49.54239 1.91044 3003 ft 112 kts 117°
2026-04-22 16:09 49.53796 1.92066 3002 ft 119 kts 117°
2026-04-22 16:09 49.53331 1.93136 2983 ft 118 kts 117°
2026-04-22 16:10 49.52870 1.94189 2850 ft 120 kts 117°
2026-04-22 16:10 49.52409 1.95247 2716 ft 118 kts 116°
2026-04-22 16:10 49.52105 1.95941 2608 ft 118 kts 116°
2026-04-22 16:10 49.51489 1.97356 2396 ft 119 kts 116°
2026-04-22 16:11 49.51029 1.98415 2236 ft 119 kts 116°
2026-04-22 16:11 49.50575 1.99458 2072 ft 115 kts 118°
2026-04-22 16:11 49.50137 2.00465 1929 ft 114 kts 117°
2026-04-22 16:11 49.49687 2.01502 1779 ft 118 kts 118°
2026-04-22 16:12 49.49244 2.02520 1598 ft 113 kts 117°
2026-04-22 16:12 49.48796 2.03507 1449 ft 114 kts 119°
2026-04-22 16:12 49.48345 2.04498 1325 ft 113 kts 117°
2026-04-22 16:12 49.47920 2.05466 1192 ft 107 kts 115°
2026-04-22 16:13 49.47499 2.06439 1033 ft 113 kts 115°
2026-04-22 16:13 49.47062 2.07541 859 ft 125 kts 115°
2026-04-22 16:13 49.46577 2.08630 691 ft 120 kts 114°
2026-04-22 16:13 49.46124 2.09700 514 ft 122 kts 117°
2026-04-22 16:14 49.45651 2.10792 368 ft 118 kts 117°
2026-04-22 16:14 49.45248 2.11732 333 ft 90 kts 123°
2026-04-22 16:14 49.44966 2.12379 323 ft 56 kts 124°
2026-04-22 16:14 49.44808 2.12746 317 ft 35 kts 123°
2026-04-22 16:15 49.44677 2.13042 311 ft 32 kts 123°
2026-04-22 16:15 49.44673 2.13270 306 ft 23 kts 46°
2026-04-22 16:15 49.44790 2.13242 309 ft 16 kts 306°
2026-04-22 16:15 49.44850 2.13105 312 ft 15 kts 303°
2026-04-22 16:16 49.44908 2.12973 315 ft 14 kts 304°
2026-04-22 16:16 49.44962 2.12847 319 ft 14 kts 304°
2026-04-22 16:16 49.45010 2.12722 322 ft 13 kts 292°
2026-04-22 16:16 49.45017 2.12694 323 ft 3 kts 288°
2026-04-22 16:17 49.45025 2.12545 324 ft 25 kts 274°
2026-04-22 16:17 49.45057 2.12167 329 ft 43 kts 293°
2026-04-22 16:17 49.45224 2.11781 333 ft 45 kts 303°
2026-04-22 16:17 49.45401 2.11380 337 ft 37 kts 304°
2026-04-22 16:18 49.45547 2.11423 345 ft 25 kts 42°
2026-04-22 16:18 49.45671 2.11594 346 ft 22 kts 42°
2026-04-22 16:18 49.45762 2.11559 352 ft 11 kts 308°
2026-04-22 16:18 49.45799 2.11472 352 ft 10 kts 276°
2026-04-22 16:19 49.45761 2.11390 345 ft 10 kts 220°
2026-04-22 16:19 49.45709 2.11318 353 ft 10 kts 231°
2026-04-22 16:19 49.45711 2.11218 348 ft 10 kts 302°
2026-04-22 16:19 49.45725 2.11185 350 ft 0 kts 305°
2026-04-22 16:20 49.45731 2.11181 351 ft 4 kts 334°
2026-04-22 16:20 49.45769 2.11208 353 ft 7 kts 33°
2026-04-22 16:20 49.45785 2.11224 349 ft 0 kts 34°